DUBAISAT-1 (35682 NORAD) Tracking and Keplerian Element Data

This shows tracking and keplerian element data for the satellite.

Feedback or suggestion? Click here.




ElementValue
Catalog35682
NameDUBAISAT-1
Epoch Orbit87867
Epoch Day353.91914325
Epoch Year2025
RAAN124.4935
Inclination97.9798
Eccentricity0.000927
Argument of Perigee288.7349
Mean Anonmoly71.2853
Mean Motion14.74622186
Decay Rate8.94E-06
L11 35682U 09041B 25353.91914325 .00000894 00000+0 14158-3 0 9992
L22 35682 97.9798 124.4935 0009270 288.7349 71.2853 14.74622186878675



Live tracking and technical data element details for DUBAISAT-1 (NORAD 35682). DUBAISAT-1 can be tracked NOW for your location showing map with azimuth and elevation plus other details from your city location.







IsCatalogInMostPopularTable: catalog: 35682, numindb: 643
Update: records affected: 1



GetName: 35682 DUBAISAT-1

Hit Count: updated at: Sat, 14 Mar 2026 02:14:40 GMT